Year,Month,Day,Hour,Minute,Value (Times are PST for windgust in km/hr)
2013,09,29,00,00,16.10
2013,09,29,00,01,14.50
2013,09,29,00,02,11.30
2013,09,29,00,03,14.50
2013,09,29,00,04,17.70
2013,09,29,00,05,17.70
2013,09,29,00,06,14.50
2013,09,29,00,07,20.90
2013,09,29,00,08,19.30
2013,09,29,00,09,14.50
2013,09,29,00,10,14.50
2013,09,29,00,11,8.10
2013,09,29,00,12,8.10
2013,09,29,00,13,9.60
2013,09,29,00,14,9.60
2013,09,29,00,15,14.50
2013,09,29,00,16,14.50
2013,09,29,00,17,11.30
2013,09,29,00,18,19.30
2013,09,29,00,19,16.10
2013,09,29,00,20,6.40
2013,09,29,00,21,8.10
2013,09,29,00,22,11.30
2013,09,29,00,23,8.10
2013,09,29,00,24,9.60
2013,09,29,00,25,6.40
2013,09,29,00,26,6.40
2013,09,29,00,27,9.60
2013,09,29,00,28,6.40
2013,09,29,00,29,6.40
2013,09,29,00,30,11.30
2013,09,29,00,31,11.30
2013,09,29,00,32,8.10
2013,09,29,00,33,6.40
2013,09,29,00,34,9.60
2013,09,29,00,35,9.60
2013,09,29,00,36,6.40
2013,09,29,00,37,4.80
2013,09,29,00,38,3.20
2013,09,29,00,39,8.10
2013,09,29,00,40,6.40
2013,09,29,00,41,9.60
2013,09,29,00,42,6.40
2013,09,29,00,43,6.40
2013,09,29,00,44,8.10
2013,09,29,00,45,6.40
2013,09,29,00,46,8.10
2013,09,29,00,47,6.40
2013,09,29,00,48,11.30
2013,09,29,00,49,9.60
2013,09,29,00,50,4.80
2013,09,29,00,51,3.20
2013,09,29,00,52,6.40
2013,09,29,00,53,8.10
2013,09,29,00,54,6.40
2013,09,29,00,55,4.80
2013,09,29,00,56,6.40
2013,09,29,00,57,4.80
2013,09,29,00,58,3.20
2013,09,29,00,59,3.20
2013,09,29,01,00,6.40
2013,09,29,01,01,3.20
2013,09,29,01,02,3.20
2013,09,29,01,03,6.40
2013,09,29,01,04,4.80
2013,09,29,01,05,1.60
2013,09,29,01,06,4.80
2013,09,29,01,07,4.80
2013,09,29,01,08,3.20
2013,09,29,01,09,1.60
2013,09,29,01,13,4.80
2013,09,29,01,14,6.40
2013,09,29,01,15,11.30
2013,09,29,01,16,8.10
2013,09,29,01,17,8.10
2013,09,29,01,18,4.80
2013,09,29,01,19,9.60
2013,09,29,01,20,6.40
2013,09,29,01,21,14.50
2013,09,29,01,22,14.50
2013,09,29,01,23,19.30
2013,09,29,01,24,12.90
2013,09,29,01,25,22.50
2013,09,29,01,26,22.50
2013,09,29,01,27,17.70
2013,09,29,01,28,19.30
2013,09,29,01,29,16.10
2013,09,29,01,30,12.90
2013,09,29,01,31,20.90
2013,09,29,01,32,16.10
2013,09,29,01,33,14.50
2013,09,29,01,34,16.10
2013,09,29,01,35,11.30
2013,09,29,01,36,16.10
2013,09,29,01,37,11.30
2013,09,29,01,38,9.60
2013,09,29,01,39,17.70
2013,09,29,01,40,16.10
2013,09,29,01,41,8.10
2013,09,29,01,42,17.70
2013,09,29,01,43,17.70
2013,09,29,01,44,11.30
2013,09,29,01,45,9.60
2013,09,29,01,46,6.40
2013,09,29,01,47,6.40
2013,09,29,01,48,8.10
2013,09,29,01,49,4.80
2013,09,29,01,50,11.30
2013,09,29,01,51,8.10
2013,09,29,01,52,6.40
2013,09,29,01,53,19.30
2013,09,29,01,54,16.10
2013,09,29,01,55,4.80
2013,09,29,01,56,17.70
2013,09,29,01,57,16.10
2013,09,29,01,58,8.10
2013,09,29,01,59,8.10
2013,09,29,02,00,9.60
2013,09,29,02,01,4.80
2013,09,29,02,02,9.60
2013,09,29,02,03,11.30
2013,09,29,02,04,9.60
2013,09,29,02,05,8.10
2013,09,29,02,06,12.90
2013,09,29,02,07,14.50
2013,09,29,02,08,9.60
2013,09,29,02,09,14.50
2013,09,29,02,10,16.10
2013,09,29,02,11,16.10
2013,09,29,02,12,24.20
2013,09,29,02,13,16.10
2013,09,29,02,14,19.30
2013,09,29,02,15,16.10
2013,09,29,02,16,20.90
2013,09,29,02,17,17.70
2013,09,29,02,18,17.70
2013,09,29,02,19,9.60
2013,09,29,02,20,14.50
2013,09,29,02,21,16.10
2013,09,29,02,22,16.10
2013,09,29,02,23,14.50
2013,09,29,02,24,9.60
2013,09,29,02,25,11.30
2013,09,29,02,26,11.30
2013,09,29,02,27,16.10
2013,09,29,02,28,14.50
2013,09,29,02,29,16.10
2013,09,29,02,30,14.50
2013,09,29,02,31,8.10
2013,09,29,02,32,8.10
2013,09,29,02,33,11.30
2013,09,29,02,34,11.30
2013,09,29,02,35,11.30
2013,09,29,02,36,19.30
2013,09,29,02,37,17.70
2013,09,29,02,38,14.50
2013,09,29,02,39,16.10
2013,09,29,02,40,16.10
2013,09,29,02,41,12.90
2013,09,29,02,42,17.70
2013,09,29,02,43,16.10
2013,09,29,02,44,19.30
2013,09,29,02,45,17.70
2013,09,29,02,46,14.50
2013,09,29,02,47,12.90
2013,09,29,02,48,9.60
2013,09,29,02,49,16.10
2013,09,29,02,50,19.30
2013,09,29,02,51,20.90
2013,09,29,02,52,19.30
2013,09,29,02,53,14.50
2013,09,29,02,54,20.90
2013,09,29,02,55,17.70
2013,09,29,02,56,20.90
2013,09,29,02,57,11.30
2013,09,29,02,58,16.10
2013,09,29,02,59,19.30
2013,09,29,03,00,14.50
2013,09,29,03,01,8.10
2013,09,29,03,02,8.10
2013,09,29,03,03,16.10
2013,09,29,03,04,4.80
2013,09,29,03,05,8.10
2013,09,29,03,06,8.10
2013,09,29,03,07,4.80
2013,09,29,03,08,8.10
2013,09,29,03,09,17.70
2013,09,29,03,10,11.30
2013,09,29,03,11,12.90
2013,09,29,03,12,16.10
2013,09,29,03,13,14.50
2013,09,29,03,14,9.60
2013,09,29,03,15,8.10
2013,09,29,03,16,11.30
2013,09,29,03,17,11.30
2013,09,29,03,18,6.40
2013,09,29,03,19,9.60
2013,09,29,03,20,9.60
2013,09,29,03,21,8.10
2013,09,29,03,22,11.30
2013,09,29,03,23,16.10
2013,09,29,03,24,9.60
2013,09,29,03,25,17.70
2013,09,29,03,26,19.30
2013,09,29,03,27,16.10
2013,09,29,03,28,16.10
2013,09,29,03,29,17.70
2013,09,29,03,30,20.90
2013,09,29,03,31,17.70
2013,09,29,03,32,16.10
2013,09,29,03,33,17.70
2013,09,29,03,34,17.70
2013,09,29,03,35,9.60
2013,09,29,03,36,9.60
2013,09,29,03,37,16.10
2013,09,29,03,38,11.30
2013,09,29,03,39,16.10
2013,09,29,03,40,16.10
2013,09,29,03,41,16.10
2013,09,29,03,42,16.10
2013,09,29,03,43,12.90
2013,09,29,03,44,17.70
2013,09,29,03,45,9.60
2013,09,29,03,46,16.10
2013,09,29,03,47,14.50
2013,09,29,03,48,6.40
2013,09,29,03,49,9.60
2013,09,29,03,50,16.10
2013,09,29,03,51,17.70
2013,09,29,03,52,17.70
2013,09,29,03,53,20.90
2013,09,29,03,54,16.10
2013,09,29,03,55,16.10
2013,09,29,03,56,12.90
2013,09,29,03,57,11.30
2013,09,29,03,58,8.10
2013,09,29,03,59,14.50
2013,09,29,04,00,3.20
2013,09,29,04,01,16.10
2013,09,29,04,02,17.70
2013,09,29,04,03,16.10
2013,09,29,04,04,17.70
2013,09,29,04,05,19.30
2013,09,29,04,06,16.10
2013,09,29,04,07,17.70
2013,09,29,04,08,17.70
2013,09,29,04,09,9.60
2013,09,29,04,10,8.10
2013,09,29,04,11,8.10
2013,09,29,04,12,16.10
2013,09,29,04,13,17.70
2013,09,29,04,14,17.70
2013,09,29,04,15,16.10
2013,09,29,04,16,16.10
2013,09,29,04,17,16.10
2013,09,29,04,18,17.70
2013,09,29,04,19,19.30
2013,09,29,04,20,16.10
2013,09,29,04,21,16.10
2013,09,29,04,22,16.10
2013,09,29,04,23,19.30
2013,09,29,04,24,19.30
2013,09,29,04,25,20.90
2013,09,29,04,26,20.90
2013,09,29,04,27,22.50
2013,09,29,04,28,8.10
2013,09,29,04,29,16.10
2013,09,29,04,30,16.10
2013,09,29,04,31,22.50
2013,09,29,04,32,17.70
2013,09,29,04,33,17.70
2013,09,29,04,34,19.30
2013,09,29,04,35,19.30
2013,09,29,04,36,19.30
2013,09,29,04,37,20.90
2013,09,29,04,38,17.70
2013,09,29,04,39,16.10
2013,09,29,04,40,14.50
2013,09,29,04,41,17.70
2013,09,29,04,42,19.30
2013,09,29,04,43,11.30
2013,09,29,04,44,14.50
2013,09,29,04,45,8.10
2013,09,29,04,46,6.40
2013,09,29,04,47,9.60
2013,09,29,04,48,9.60
2013,09,29,04,49,9.60
2013,09,29,04,50,6.40
2013,09,29,04,51,8.10
2013,09,29,04,52,9.60
2013,09,29,04,53,8.10
2013,09,29,04,54,6.40
2013,09,29,04,55,8.10
2013,09,29,04,56,9.60
2013,09,29,04,57,3.20
2013,09,29,04,58,6.40
2013,09,29,04,59,12.90
2013,09,29,05,00,16.10
2013,09,29,05,01,17.70
2013,09,29,05,02,19.30
2013,09,29,05,03,19.30
2013,09,29,05,04,22.50
2013,09,29,05,05,20.90
2013,09,29,05,06,24.20
2013,09,29,05,07,11.30
2013,09,29,05,08,19.30
2013,09,29,05,09,17.70
2013,09,29,05,10,16.10
2013,09,29,05,11,16.10
2013,09,29,05,12,14.50
2013,09,29,05,13,11.30
2013,09,29,05,14,9.60
2013,09,29,05,15,11.30
2013,09,29,05,16,11.30
2013,09,29,05,17,17.70
2013,09,29,05,18,11.30
2013,09,29,05,19,20.90
2013,09,29,05,20,17.70
2013,09,29,05,21,14.50
2013,09,29,05,22,16.10
2013,09,29,05,23,17.70
2013,09,29,05,24,17.70
2013,09,29,05,25,16.10
2013,09,29,05,26,22.50
2013,09,29,05,27,22.50
2013,09,29,05,28,16.10
2013,09,29,05,29,20.90
2013,09,29,05,30,24.20
2013,09,29,05,31,16.10
2013,09,29,05,32,19.30
2013,09,29,05,33,12.90
2013,09,29,05,34,8.10
2013,09,29,05,35,9.60
2013,09,29,05,36,11.30
2013,09,29,05,37,14.50
2013,09,29,05,38,14.50
2013,09,29,05,39,16.10
2013,09,29,05,40,11.30
2013,09,29,05,41,19.30
2013,09,29,05,42,16.10
2013,09,29,05,43,9.60
2013,09,29,05,44,8.10
2013,09,29,05,45,11.30
2013,09,29,05,46,12.90
2013,09,29,05,47,16.10
2013,09,29,05,48,14.50
2013,09,29,05,49,16.10
2013,09,29,05,50,11.30
2013,09,29,05,51,16.10
2013,09,29,05,52,16.10
2013,09,29,05,53,16.10
2013,09,29,05,54,17.70
2013,09,29,05,55,12.90
2013,09,29,05,56,17.70
2013,09,29,05,57,9.60
2013,09,29,05,58,12.90
2013,09,29,05,59,24.20
2013,09,29,06,00,9.60
2013,09,29,06,01,12.90
2013,09,29,06,02,17.70
2013,09,29,06,03,19.30
2013,09,29,06,04,9.60
2013,09,29,06,05,16.10
2013,09,29,06,06,14.50
2013,09,29,06,07,17.70
2013,09,29,06,08,14.50
2013,09,29,06,09,11.30
2013,09,29,06,10,16.10
2013,09,29,06,11,14.50
2013,09,29,06,12,17.70
2013,09,29,06,13,8.10
2013,09,29,06,14,24.20
2013,09,29,06,15,20.90
2013,09,29,06,16,22.50
2013,09,29,06,17,20.90
2013,09,29,06,18,20.90
2013,09,29,06,19,25.70
2013,09,29,06,20,22.50
2013,09,29,06,21,16.10
2013,09,29,06,22,22.50
2013,09,29,06,23,17.70
2013,09,29,06,24,25.70
2013,09,29,06,25,24.20
2013,09,29,06,26,19.30
2013,09,29,06,27,19.30
2013,09,29,06,28,22.50
2013,09,29,06,29,20.90
2013,09,29,06,30,20.90
2013,09,29,06,31,17.70
2013,09,29,06,32,19.30
2013,09,29,06,33,14.50
2013,09,29,06,34,12.90
2013,09,29,06,35,24.20
2013,09,29,06,36,22.50
2013,09,29,06,37,25.70
2013,09,29,06,38,16.10
2013,09,29,06,39,20.90
2013,09,29,06,40,19.30
2013,09,29,06,41,19.30
2013,09,29,06,42,17.70
2013,09,29,06,43,22.50
2013,09,29,06,44,8.10
2013,09,29,06,45,17.70
2013,09,29,06,46,14.50
2013,09,29,06,47,8.10
2013,09,29,06,48,9.60
2013,09,29,06,49,17.70
2013,09,29,06,50,17.70
2013,09,29,06,51,8.10
2013,09,29,06,52,17.70
2013,09,29,06,53,9.60
2013,09,29,06,54,11.30
2013,09,29,06,55,8.10
2013,09,29,06,56,19.30
2013,09,29,06,57,14.50
2013,09,29,06,58,9.60
2013,09,29,06,59,6.40
2013,09,29,07,00,16.10
2013,09,29,07,01,14.50
2013,09,29,07,02,11.30
2013,09,29,07,03,16.10
2013,09,29,07,04,11.30
2013,09,29,07,05,14.50
2013,09,29,07,06,12.90
2013,09,29,07,07,11.30
2013,09,29,07,08,19.30
2013,09,29,07,09,20.90
2013,09,29,07,10,19.30
2013,09,29,07,11,19.30
2013,09,29,07,12,20.90
2013,09,29,07,13,19.30
2013,09,29,07,14,19.30
2013,09,29,07,15,19.30
2013,09,29,07,16,27.40
2013,09,29,07,17,20.90
2013,09,29,07,18,22.50
2013,09,29,07,19,20.90
2013,09,29,07,20,19.30
2013,09,29,07,21,24.20
2013,09,29,07,22,17.70
2013,09,29,07,23,17.70
2013,09,29,07,24,19.30
2013,09,29,07,25,17.70
2013,09,29,07,26,14.50
2013,09,29,07,27,14.50
2013,09,29,07,28,6.40
2013,09,29,07,29,9.60
2013,09,29,07,30,11.30
2013,09,29,07,31,14.50
2013,09,29,07,32,8.10
2013,09,29,07,33,11.30
2013,09,29,07,34,11.30
2013,09,29,07,35,16.10
2013,09,29,07,36,11.30
2013,09,29,07,37,9.60
2013,09,29,07,38,1.60
2013,09,29,07,39,9.60
2013,09,29,07,40,4.80
2013,09,29,07,41,6.40
2013,09,29,07,42,8.10
2013,09,29,07,43,9.60
2013,09,29,07,44,8.10
2013,09,29,07,45,16.10
2013,09,29,07,46,14.50
2013,09,29,07,47,16.10
2013,09,29,07,48,12.90
2013,09,29,07,49,8.10
2013,09,29,07,50,11.30
2013,09,29,07,51,19.30
2013,09,29,07,52,9.60
2013,09,29,07,53,16.10
2013,09,29,07,54,9.60
2013,09,29,07,55,6.40
2013,09,29,07,56,6.40
2013,09,29,07,57,24.20
2013,09,29,07,58,14.50
2013,09,29,07,59,14.50
2013,09,29,08,00,19.30
2013,09,29,08,01,14.50
2013,09,29,08,02,9.60
2013,09,29,08,03,16.10
2013,09,29,08,04,16.10
2013,09,29,08,05,19.30
2013,09,29,08,06,14.50
2013,09,29,08,07,20.90
2013,09,29,08,08,20.90
2013,09,29,08,09,17.70
2013,09,29,08,10,25.70
2013,09,29,08,11,19.30
2013,09,29,08,12,24.20
2013,09,29,08,13,24.20
2013,09,29,08,14,22.50
2013,09,29,08,15,16.10
2013,09,29,08,16,22.50
2013,09,29,08,17,24.20
2013,09,29,08,18,24.20
2013,09,29,08,19,24.20
2013,09,29,08,20,24.20
2013,09,29,08,21,22.50
2013,09,29,08,22,32.20
2013,09,29,08,23,22.50
2013,09,29,08,24,29.00
2013,09,29,08,25,25.70
2013,09,29,08,26,32.20
2013,09,29,08,27,29.00
2013,09,29,08,28,29.00
2013,09,29,08,29,33.80
2013,09,29,08,30,24.20
2013,09,29,08,31,33.80
2013,09,29,08,32,24.20
2013,09,29,08,33,27.40
2013,09,29,08,34,27.40
2013,09,29,08,35,25.70
2013,09,29,08,36,24.20
2013,09,29,08,37,22.50
2013,09,29,08,38,22.50
2013,09,29,08,39,19.30
2013,09,29,08,40,17.70
2013,09,29,08,41,22.50
2013,09,29,08,42,20.90
2013,09,29,08,43,20.90
2013,09,29,08,44,22.50
2013,09,29,08,45,27.40
2013,09,29,08,46,27.40
2013,09,29,08,47,22.50
2013,09,29,08,48,22.50
2013,09,29,08,49,14.50
2013,09,29,08,50,17.70
2013,09,29,08,51,22.50
2013,09,29,08,52,24.20
2013,09,29,08,53,20.90
2013,09,29,08,54,24.20
2013,09,29,08,55,27.40
2013,09,29,08,56,25.70
2013,09,29,08,57,22.50
2013,09,29,08,58,22.50
2013,09,29,08,59,27.40
2013,09,29,09,00,20.90
2013,09,29,09,01,14.50
2013,09,29,09,02,22.50
2013,09,29,09,03,22.50
2013,09,29,09,04,17.70
2013,09,29,09,05,22.50
2013,09,29,09,06,19.30
2013,09,29,09,07,14.50
2013,09,29,09,08,17.70
2013,09,29,09,09,20.90
2013,09,29,09,10,20.90
2013,09,29,09,11,12.90
2013,09,29,09,12,17.70
2013,09,29,09,13,19.30
2013,09,29,09,14,16.10
2013,09,29,09,15,17.70
2013,09,29,09,16,14.50
2013,09,29,09,17,16.10
2013,09,29,09,18,16.10
2013,09,29,09,19,14.50
2013,09,29,09,20,14.50
2013,09,29,09,21,17.70
2013,09,29,09,22,17.70
2013,09,29,09,23,14.50
2013,09,29,09,24,9.60
2013,09,29,09,25,9.60
2013,09,29,09,26,8.10
2013,09,29,09,27,17.70
2013,09,29,09,28,9.60
2013,09,29,09,29,8.10
2013,09,29,09,30,6.40
2013,09,29,09,31,17.70
2013,09,29,09,32,20.90
2013,09,29,09,33,19.30
2013,09,29,09,34,19.30
2013,09,29,09,35,14.50
2013,09,29,09,36,20.90
2013,09,29,09,37,24.20
2013,09,29,09,38,16.10
2013,09,29,09,39,17.70
2013,09,29,09,40,19.30
2013,09,29,09,41,22.50
2013,09,29,09,42,19.30
2013,09,29,09,43,16.10
2013,09,29,09,44,16.10
2013,09,29,09,45,8.10
2013,09,29,09,46,9.60
2013,09,29,09,47,8.10
2013,09,29,09,48,14.50
2013,09,29,09,49,11.30
2013,09,29,09,50,20.90
2013,09,29,09,51,20.90
2013,09,29,09,52,17.70
2013,09,29,09,53,9.60
2013,09,29,09,54,9.60
2013,09,29,09,55,9.60
2013,09,29,09,56,9.60
2013,09,29,09,57,6.40
2013,09,29,09,58,8.10
2013,09,29,09,59,11.30
2013,09,29,10,00,6.40
2013,09,29,10,01,11.30
2013,09,29,10,02,11.30
2013,09,29,10,03,11.30
2013,09,29,10,04,12.90
2013,09,29,10,05,12.90
2013,09,29,10,06,11.30
2013,09,29,10,07,9.60
2013,09,29,10,08,16.10
2013,09,29,10,09,14.50
2013,09,29,10,10,12.90
2013,09,29,10,11,6.40
2013,09,29,10,12,16.10
2013,09,29,10,13,14.50
2013,09,29,10,14,9.60
2013,09,29,10,15,16.10
2013,09,29,10,16,11.30
2013,09,29,10,17,19.30
2013,09,29,10,18,9.60
2013,09,29,10,19,11.30
2013,09,29,10,20,14.50
2013,09,29,10,21,16.10
2013,09,29,10,22,17.70
2013,09,29,10,23,8.10
2013,09,29,10,24,17.70
2013,09,29,10,25,11.30
2013,09,29,10,26,12.90
2013,09,29,10,27,17.70
2013,09,29,10,28,16.10
2013,09,29,10,29,17.70
2013,09,29,10,30,8.10
2013,09,29,10,31,20.90
2013,09,29,10,32,9.60
2013,09,29,10,33,11.30
2013,09,29,10,34,14.50
2013,09,29,10,35,20.90
2013,09,29,10,36,17.70
2013,09,29,10,37,19.30
2013,09,29,10,38,11.30
2013,09,29,10,39,19.30
2013,09,29,10,40,20.90
2013,09,29,10,41,20.90
2013,09,29,10,42,14.50
2013,09,29,10,43,11.30
2013,09,29,10,44,14.50
2013,09,29,10,45,14.50
2013,09,29,10,46,14.50
2013,09,29,10,47,12.90
2013,09,29,10,48,17.70
2013,09,29,10,49,24.20
2013,09,29,10,50,9.60
2013,09,29,10,51,9.60
2013,09,29,10,52,11.30
2013,09,29,10,53,16.10
2013,09,29,10,54,16.10
2013,09,29,10,55,20.90
2013,09,29,10,56,20.90
2013,09,29,10,57,16.10
2013,09,29,10,58,17.70
2013,09,29,10,59,11.30
2013,09,29,11,00,16.10
2013,09,29,11,01,17.70
2013,09,29,11,02,12.90
2013,09,29,11,03,12.90
2013,09,29,11,04,14.50
2013,09,29,11,05,20.90
2013,09,29,11,06,16.10
2013,09,29,11,07,11.30
2013,09,29,11,08,16.10
2013,09,29,11,09,14.50
2013,09,29,11,10,11.30
2013,09,29,11,11,11.30
2013,09,29,11,12,19.30
2013,09,29,11,13,17.70
2013,09,29,11,14,9.60
2013,09,29,11,15,19.30
2013,09,29,11,16,16.10
2013,09,29,11,17,17.70
2013,09,29,11,18,19.30
2013,09,29,11,19,16.10
2013,09,29,11,20,14.50
2013,09,29,11,21,22.50
2013,09,29,11,22,14.50
2013,09,29,11,23,19.30
2013,09,29,11,24,29.00
2013,09,29,11,25,20.90
2013,09,29,11,26,14.50
2013,09,29,11,27,11.30
2013,09,29,11,28,11.30
2013,09,29,11,29,9.60
2013,09,29,11,30,11.30
2013,09,29,11,31,9.60
2013,09,29,11,32,16.10
2013,09,29,11,33,14.50
2013,09,29,11,34,16.10
2013,09,29,11,35,12.90
2013,09,29,11,36,9.60
2013,09,29,11,37,16.10
2013,09,29,11,38,14.50
2013,09,29,11,39,12.90
2013,09,29,11,40,19.30
2013,09,29,11,41,20.90
2013,09,29,11,42,19.30
2013,09,29,11,43,17.70
2013,09,29,11,44,9.60
2013,09,29,11,45,20.90
2013,09,29,11,46,17.70
2013,09,29,11,47,14.50
2013,09,29,11,48,29.00
2013,09,29,11,49,11.30
2013,09,29,11,50,11.30
2013,09,29,11,51,8.10
2013,09,29,11,52,8.10
2013,09,29,11,53,12.90
2013,09,29,11,54,12.90
2013,09,29,11,55,8.10
2013,09,29,11,56,11.30
2013,09,29,11,57,16.10
2013,09,29,11,58,12.90
2013,09,29,11,59,8.10
2013,09,29,12,00,17.70
2013,09,29,12,01,14.50
2013,09,29,12,02,19.30
2013,09,29,12,03,14.50
2013,09,29,12,04,9.60
2013,09,29,12,05,11.30
2013,09,29,12,06,17.70
2013,09,29,12,07,17.70
2013,09,29,12,08,17.70
2013,09,29,12,09,14.50
2013,09,29,12,10,19.30
2013,09,29,12,11,14.50
2013,09,29,12,12,17.70
2013,09,29,12,13,17.70
2013,09,29,12,14,17.70
2013,09,29,12,15,16.10
2013,09,29,12,16,16.10
2013,09,29,12,17,17.70
2013,09,29,12,18,14.50
2013,09,29,12,19,9.60
2013,09,29,12,20,6.40
2013,09,29,12,21,16.10
2013,09,29,12,22,8.10
2013,09,29,12,23,9.60
2013,09,29,12,24,8.10
2013,09,29,12,25,11.30
2013,09,29,12,26,4.80
2013,09,29,12,27,8.10
2013,09,29,12,28,11.30
2013,09,29,12,29,6.40
2013,09,29,12,30,11.30
2013,09,29,12,31,9.60
2013,09,29,12,32,8.10
2013,09,29,12,33,6.40
2013,09,29,12,34,14.50
2013,09,29,12,35,16.10
2013,09,29,12,36,12.90
2013,09,29,12,37,17.70
2013,09,29,12,38,16.10
2013,09,29,12,39,11.30
2013,09,29,12,40,16.10
2013,09,29,12,41,9.60
2013,09,29,12,42,11.30
2013,09,29,12,43,14.50
2013,09,29,12,44,14.50
2013,09,29,12,45,6.40
2013,09,29,12,46,11.30
2013,09,29,12,47,14.50
2013,09,29,12,48,9.60
2013,09,29,12,49,14.50
2013,09,29,12,50,9.60
2013,09,29,12,51,6.40
2013,09,29,12,52,14.50
2013,09,29,12,53,14.50
2013,09,29,12,54,16.10
2013,09,29,12,55,12.90
2013,09,29,12,56,11.30
2013,09,29,12,57,8.10
2013,09,29,12,58,9.60
2013,09,29,12,59,9.60
2013,09,29,13,00,9.60
2013,09,29,13,01,9.60
2013,09,29,13,02,9.60
2013,09,29,13,03,1.60
2013,09,29,13,04,4.80
2013,09,29,13,05,9.60
2013,09,29,13,06,9.60
2013,09,29,13,07,6.40
2013,09,29,13,08,4.80
2013,09,29,13,09,8.10
2013,09,29,13,10,8.10
2013,09,29,13,11,9.60
2013,09,29,13,12,9.60
2013,09,29,13,13,8.10
2013,09,29,13,14,11.30
2013,09,29,13,15,11.30
2013,09,29,13,16,8.10
2013,09,29,13,17,4.80
2013,09,29,13,18,3.20
2013,09,29,13,19,4.80
2013,09,29,13,20,11.30
2013,09,29,13,21,8.10
2013,09,29,13,22,17.70
2013,09,29,13,23,16.10
2013,09,29,13,24,9.60
2013,09,29,13,25,9.60
2013,09,29,13,26,14.50
2013,09,29,13,27,4.80
2013,09,29,13,28,6.40
2013,09,29,13,29,3.20
2013,09,29,13,30,3.20
2013,09,29,13,31,9.60
2013,09,29,13,32,9.60
2013,09,29,13,33,6.40
2013,09,29,13,34,6.40
2013,09,29,13,35,6.40
2013,09,29,13,36,4.80
2013,09,29,13,37,6.40
2013,09,29,13,38,3.20
2013,09,29,13,39,4.80
2013,09,29,13,40,4.80
2013,09,29,13,41,8.10
2013,09,29,13,42,4.80
2013,09,29,13,43,1.60
2013,09,29,13,44,8.10
2013,09,29,13,45,6.40
2013,09,29,13,46,3.20
2013,09,29,13,47,8.10
2013,09,29,13,48,6.40
2013,09,29,13,49,8.10
2013,09,29,13,50,8.10
2013,09,29,13,51,4.80
2013,09,29,13,52,6.40
2013,09,29,13,53,6.40
2013,09,29,13,54,11.30
2013,09,29,13,55,8.10
2013,09,29,13,56,6.40
2013,09,29,13,57,8.10
2013,09,29,13,58,9.60
2013,09,29,13,59,6.40
2013,09,29,14,00,6.40
2013,09,29,14,01,6.40
2013,09,29,14,02,3.20
2013,09,29,14,04,4.80
2013,09,29,14,05,6.40
2013,09,29,14,06,3.20
2013,09,29,14,07,3.20
2013,09,29,14,08,3.20
2013,09,29,14,09,4.80
2013,09,29,14,10,4.80
2013,09,29,14,11,6.40
2013,09,29,14,12,6.40
2013,09,29,14,13,6.40
2013,09,29,14,14,6.40
2013,09,29,14,15,6.40
2013,09,29,14,16,6.40
2013,09,29,14,17,6.40
2013,09,29,14,18,6.40
2013,09,29,14,19,6.40
2013,09,29,14,20,6.40
2013,09,29,14,21,4.80
2013,09,29,14,22,6.40
2013,09,29,14,23,6.40
2013,09,29,14,24,6.40
2013,09,29,14,25,6.40
2013,09,29,14,26,6.40
2013,09,29,14,27,6.40
2013,09,29,14,28,4.80
2013,09,29,14,29,8.10
2013,09,29,14,30,4.80
2013,09,29,14,31,4.80
2013,09,29,14,32,3.20
2013,09,29,14,33,4.80
2013,09,29,14,34,4.80
2013,09,29,14,35,6.40
2013,09,29,14,36,6.40
2013,09,29,14,37,6.40
2013,09,29,14,38,6.40
2013,09,29,14,39,6.40
2013,09,29,14,40,6.40
2013,09,29,14,41,6.40
2013,09,29,14,42,8.10
2013,09,29,14,43,8.10
2013,09,29,14,44,8.10
2013,09,29,14,45,6.40
2013,09,29,14,46,8.10
2013,09,29,14,47,8.10
2013,09,29,14,48,8.10
2013,09,29,14,49,6.40
2013,09,29,14,50,6.40
2013,09,29,14,51,8.10
2013,09,29,14,52,8.10
2013,09,29,14,53,6.40
2013,09,29,14,54,6.40
2013,09,29,14,55,6.40
2013,09,29,14,56,4.80
2013,09,29,14,57,3.20
2013,09,29,14,58,8.10
2013,09,29,14,59,4.80
2013,09,29,15,00,4.80
2013,09,29,15,01,3.20
2013,09,29,15,02,3.20
2013,09,29,15,03,6.40
2013,09,29,15,04,6.40
2013,09,29,15,05,4.80
2013,09,29,15,06,8.10
2013,09,29,15,07,9.60
2013,09,29,15,08,6.40
2013,09,29,15,09,8.10
2013,09,29,15,10,4.80
2013,09,29,15,11,4.80
2013,09,29,15,12,6.40
2013,09,29,15,13,6.40
2013,09,29,15,14,4.80
2013,09,29,15,15,8.10
2013,09,29,15,16,8.10
2013,09,29,15,17,6.40
2013,09,29,15,18,8.10
2013,09,29,15,19,8.10
2013,09,29,15,20,8.10
2013,09,29,15,21,8.10
2013,09,29,15,22,6.40
2013,09,29,15,23,4.80
2013,09,29,15,24,3.20
2013,09,29,15,25,8.10
2013,09,29,15,26,8.10
2013,09,29,15,27,9.60
2013,09,29,15,28,12.90
2013,09,29,15,29,12.90
2013,09,29,15,30,17.70
2013,09,29,15,31,24.20
2013,09,29,15,32,17.70
2013,09,29,15,33,11.30
2013,09,29,15,34,19.30
2013,09,29,15,35,32.20
2013,09,29,15,36,30.60
2013,09,29,15,37,25.70
2013,09,29,15,38,27.40
2013,09,29,15,39,24.20
2013,09,29,15,40,20.90
2013,09,29,15,41,22.50
2013,09,29,15,42,20.90
2013,09,29,15,43,22.50
2013,09,29,15,44,16.10
2013,09,29,15,45,27.40
2013,09,29,15,46,17.70
2013,09,29,15,47,16.10
2013,09,29,15,48,30.60
2013,09,29,15,49,25.70
2013,09,29,15,50,20.90
2013,09,29,15,51,16.10
2013,09,29,15,52,27.40
2013,09,29,15,53,22.50
2013,09,29,15,54,14.50
2013,09,29,15,55,25.70
2013,09,29,15,56,29.00
2013,09,29,15,57,24.20
2013,09,29,15,58,32.20
2013,09,29,15,59,30.60
2013,09,29,16,00,37.00
2013,09,29,16,01,27.40
2013,09,29,16,02,27.40
2013,09,29,16,03,24.20
2013,09,29,16,04,25.70
2013,09,29,16,05,30.60
2013,09,29,16,06,35.40
2013,09,29,16,07,24.20
2013,09,29,16,08,27.40
2013,09,29,16,09,33.80
2013,09,29,16,10,30.60
2013,09,29,16,11,29.00
2013,09,29,16,12,20.90
2013,09,29,16,13,20.90
2013,09,29,16,14,30.60
2013,09,29,16,15,32.20
2013,09,29,16,16,20.90
2013,09,29,16,17,35.40
2013,09,29,16,18,27.40
2013,09,29,16,19,30.60
2013,09,29,16,20,35.40
2013,09,29,16,21,27.40
2013,09,29,16,22,29.00
2013,09,29,16,23,25.70
2013,09,29,16,24,22.50
2013,09,29,16,25,17.70
2013,09,29,16,26,22.50
2013,09,29,16,27,24.20
2013,09,29,16,28,30.60
2013,09,29,16,29,27.40
2013,09,29,16,30,29.00
2013,09,29,16,31,24.20
2013,09,29,16,32,30.60
2013,09,29,16,33,29.00
2013,09,29,16,34,25.70
2013,09,29,16,35,27.40
2013,09,29,16,36,35.40
2013,09,29,16,37,19.30
2013,09,29,16,38,30.60
2013,09,29,16,39,35.40
2013,09,29,16,40,25.70
2013,09,29,16,41,32.20
2013,09,29,16,42,27.40
2013,09,29,16,43,45.10
2013,09,29,16,44,25.70
2013,09,29,16,45,33.80
2013,09,29,16,46,35.40
2013,09,29,16,47,33.80
2013,09,29,16,48,37.00
2013,09,29,16,49,40.20
2013,09,29,16,50,29.00
2013,09,29,16,51,20.90
2013,09,29,16,52,43.50
2013,09,29,16,53,33.80
2013,09,29,16,54,30.60
2013,09,29,16,55,24.20
2013,09,29,16,56,25.70
2013,09,29,16,57,35.40
2013,09,29,16,58,32.20
2013,09,29,16,59,37.00
2013,09,29,17,00,27.40
2013,09,29,17,01,24.20
2013,09,29,17,02,35.40
2013,09,29,17,03,53.10
2013,09,29,17,04,45.10
2013,09,29,17,05,37.00
2013,09,29,17,06,43.50
2013,09,29,17,07,27.40
2013,09,29,17,08,32.20
2013,09,29,17,09,40.20
2013,09,29,17,10,40.20
2013,09,29,17,11,41.80
2013,09,29,17,12,41.80
2013,09,29,17,13,38.60
2013,09,29,17,14,49.90
2013,09,29,17,15,40.20
2013,09,29,17,16,53.10
2013,09,29,17,17,38.60
2013,09,29,17,18,38.60
2013,09,29,17,19,49.90
2013,09,29,17,20,49.90
2013,09,29,17,21,46.70
2013,09,29,17,22,54.70
2013,09,29,17,23,40.20
2013,09,29,17,24,48.30
2013,09,29,17,25,46.70
2013,09,29,17,26,46.70
2013,09,29,17,27,45.10
2013,09,29,17,28,41.80
2013,09,29,17,29,40.20
2013,09,29,17,30,46.70
2013,09,29,17,31,46.70
2013,09,29,17,32,32.20
2013,09,29,17,33,37.00
2013,09,29,17,34,43.50
2013,09,29,17,35,41.80
2013,09,29,17,36,48.30
2013,09,29,17,37,45.10
2013,09,29,17,38,54.70